MOVE-IIB (44398 NORAD) Tracking and Keplerian Element Data

This shows tracking and keplerian element data for the satellite.

Feedback or suggestion? Click here.




ElementValue
Catalog44398
NameMOVE-IIB
Epoch Orbit1985
Epoch Day317.89292953
Epoch Year2019
RAAN277.3651
Inclination97.5072
Eccentricity0.0026127
Argument of Perigee150.1731
Mean Anonmoly210.0995
Mean Motion15.11838416
Decay Rate1.195E-05
L11 44398U 19038N 19317.89292953 .00001195 00000-0 73176-4 0 9991
L22 44398 97.5072 277.3651 0026127 150.1731 210.0995 15.11838416 19854

Live tracking and technical data element details for MOVE-IIB (NORAD 44398). MOVE-IIB can be tracked NOW for your location showing map with azimuth and elevation plus other details from your city location.

Track the satellite on the map from your city or location and see movement details for azimuth, elevation, latitude, longitude, range, height, and movement on the map or in text.







IsCatalogInMostPopularTable: catalog: 44398, numindb: 26
Update: records affected: 1



GetName: 44398 MOVE-IIB

Hit Count: updated at: Fri, 15 Nov 2019 02:11:46 GMT